, AK

(GMT )
Valdez Airport

Weather History for PAVD - September, 2013

Change the Weather History Date:

Tuesday, September 17, 2013

  Actual Average Record
Temperature  
Mean Temperature 44 °F -  
Max Temperature 46 °F 53 °F 65 °F (1968)
Min Temperature 42 °F 40 °F 28 °F (2003)
Degree Days  
Heating Degree Days 21    
Moisture  
Dew Point 43 °F    
Average Humidity 90    
Maximum Humidity 93    
Minimum Humidity 81    
Precipitation  
Precipitation 0.74 in - - ()
Sea Level Pressure  
Sea Level Pressure 29.51 in    
Wind  
Wind Speed 2 mph (East)    
Max Wind Speed 6 mph    
Max Gust Speed -    
Visibility 9 miles    
Events      
Averages and records for this station are not official NWS values.
T = Trace of Precipitation, MM = Missing Value Source: NWS Daily Summary

Daily Weather History Graph

Daily Weather History Graph

Search for Another Location

Airport or City:

Trip Planner

Search our weather history database for the weather conditions in past years. The results will help you decide how hot, cold, wet, or windy it might be!

Date:

Astronomy

Sep. 17, 2013 Rise Set
Actual Time 7:17 AM AKDT 7:59 PM AKDT
Civil Twilight 6:34 AM AKDT 8:42 PM AKDT
Nautical Twilight 5:40 AM AKDT 9:35 PM AKDT
Astronomical Twilight 4:39 AM AKDT 10:35 PM AKDT
Moon 7:01 PM AKDT 5:02 AM AKDT
Length of Visible Light 14h 08m
Length of Day
12h 41m
Waxing Gibbous, 96% of the Moon is Illuminated
Sep 17
Waxing Gibbous
Sep 19
Full
Sep 26
Last Quarter
Oct 4
New
Oct 11
First Quarter

Hourly Weather History & Observations

Time (AKDT) Temp. Windchill Dew Point Humidity Pressure Visibility Wind Dir Wind Speed Gust Speed Precip Events Conditions
12:16 AM 46.4 °F 44.3 °F 42.8 °F 87% 29.51 in 10.0 mi ENE 4.6 mph - 0.01 in   Overcast
12:36 AM 44.6 °F 43.1 °F 42.8 °F 93% 29.51 in 10.0 mi East 3.5 mph - 0.02 in   Overcast
12:56 AM 46.4 °F - 42.8 °F 87% 29.51 in 10.0 mi Calm Calm - 0.03 in   Overcast
1:16 AM 44.6 °F 43.1 °F 42.8 °F 93% 29.51 in 10.0 mi ENE 3.5 mph - 0.01 in   Overcast
1:36 AM 44.6 °F - 42.8 °F 93% 29.51 in 10.0 mi Calm Calm - 0.03 in   Overcast
1:56 AM 46.4 °F 45.2 °F 44.6 °F 93% 29.52 in 10.0 mi East 3.5 mph - 0.05 in   Overcast
2:16 AM 44.6 °F 41.4 °F 42.8 °F 93% 29.52 in 10.0 mi East 5.8 mph - 0.02 in   Overcast
2:36 AM 44.6 °F 41.4 °F 42.8 °F 93% 29.52 in 10.0 mi East 5.8 mph - 0.04 in   Overcast
2:56 AM 44.6 °F 42.2 °F 41.0 °F 87% 29.52 in 10.0 mi East 4.6 mph - 0.07 in   Overcast
3:16 AM 44.6 °F 42.2 °F 42.8 °F 93% 29.51 in 10.0 mi ENE 4.6 mph - 0.02 in   Overcast
3:36 AM 44.6 °F - 42.8 °F 93% 29.51 in 10.0 mi Calm Calm - 0.04 in   Overcast
3:56 AM 44.6 °F 42.2 °F 42.8 °F 93% 29.51 in 9.0 mi East 4.6 mph - 0.06 in   Overcast
4:16 AM 44.6 °F - 41.0 °F 87% 29.51 in 10.0 mi Calm Calm - 0.02 in   Overcast
4:36 AM 44.6 °F - 42.8 °F 93% 29.51 in 10.0 mi Calm Calm - 0.05 in   Overcast
4:56 AM 46.4 °F 45.2 °F 42.8 °F 87% 29.51 in 10.0 mi ENE 3.5 mph - 0.07 in   Overcast
5:16 AM 46.4 °F 43.5 °F 44.6 °F 93% 29.51 in 10.0 mi NE 5.8 mph - 0.01 in   Overcast
5:36 AM 46.4 °F - 44.6 °F 93% 29.51 in 10.0 mi Calm Calm - 0.04 in   Overcast
5:56 AM 46.4 °F - 42.8 °F 87% 29.51 in 10.0 mi Calm Calm - 0.07 in   Overcast
6:16 AM 44.6 °F 43.1 °F 42.8 °F 93% 29.51 in 7.0 mi ESE 3.5 mph - 0.02 in   Overcast
6:36 AM 44.6 °F 42.2 °F 41.0 °F 87% 29.51 in 7.0 mi East 4.6 mph - 0.03 in   Overcast
6:56 AM 44.6 °F 42.2 °F 41.0 °F 87% 29.51 in 7.0 mi East 4.6 mph - 0.05 in   Overcast
7:16 AM 42.8 °F 39.3 °F 39.2 °F 87% 29.51 in 7.0 mi East 5.8 mph - 0.02 in   Overcast
7:36 AM 44.6 °F - 41.0 °F 87% 29.51 in 7.0 mi Calm Calm - 0.03 in   Overcast
7:56 AM 44.6 °F 43.1 °F 41.0 °F 87% 29.51 in 8.0 mi ENE 3.5 mph - 0.05 in   Overcast
8:16 AM 44.6 °F - 42.8 °F 93% 29.51 in 8.0 mi Calm Calm - 0.01 in   Overcast
8:36 AM 44.6 °F - 42.8 °F 93% 29.51 in 8.0 mi Calm Calm - 0.02 in   Overcast
8:56 AM 44.6 °F 42.2 °F 41.0 °F 87% 29.51 in 8.0 mi SE 4.6 mph - 0.02 in   Overcast
9:16 AM 44.6 °F 41.4 °F 41.0 °F 87% 29.51 in 8.0 mi ENE 5.8 mph - 0.02 in   Overcast
9:36 AM 44.6 °F - 41.0 °F 87% 29.51 in 8.0 mi Calm Calm - 0.03 in   Overcast
9:56 AM 44.6 °F - 42.8 °F 93% 29.51 in 8.0 mi Calm Calm - N/A   Overcast
10:16 AM 44.6 °F - 42.8 °F 93% 29.51 in 8.0 mi Calm Calm - N/A   Overcast
10:36 AM 44.6 °F - 42.8 °F 93% 29.51 in 8.0 mi Calm Calm - N/A   Overcast
10:56 AM 44.6 °F - 41.0 °F 87% 29.51 in 7.0 mi Calm Calm - N/A   Overcast
11:16 AM 44.6 °F 43.1 °F 42.8 °F 93% 29.51 in 7.0 mi East 3.5 mph - N/A   Overcast
11:36 AM 44.6 °F 43.1 °F 41.0 °F 87% 29.51 in 7.0 mi NE 3.5 mph - N/A   Overcast
11:56 AM 44.6 °F - 42.8 °F 93% 29.51 in 7.0 mi Calm Calm - 0.04 in   Overcast
12:16 PM 46.4 °F - 41.0 °F 81% 29.52 in 7.0 mi Calm Calm - 0.01 in   Overcast
12:36 PM 46.4 °F - 42.8 °F 87% 29.52 in 7.0 mi Calm Calm - 0.02 in   Overcast
12:56 PM 46.4 °F - 42.8 °F 87% 29.52 in 7.0 mi Calm Calm - 0.02 in   Overcast
1:16 PM 46.4 °F - 42.8 °F 87% 29.51 in 7.0 mi Calm Calm - 0.01 in   Overcast
1:36 PM 46.4 °F - 42.8 °F 87% 29.51 in 7.0 mi Calm Calm - 0.02 in   Overcast
1:56 PM 46.4 °F - 42.8 °F 87% 29.51 in 7.0 mi Calm Calm - 0.02 in   Overcast
2:16 PM 46.4 °F - 42.8 °F 87% 29.51 in 7.0 mi Calm Calm - 0.01 in   Overcast
2:36 PM 46.4 °F - 44.6 °F 93% 29.50 in 7.0 mi Calm Calm - 0.02 in   Overcast
2:56 PM 46.4 °F - 42.8 °F 87% 29.50 in 7.0 mi Calm Calm - 0.02 in   Overcast
3:16 PM 46.4 °F - 42.8 °F 87% 29.50 in 7.0 mi Calm Calm - 0.01 in   Overcast
3:36 PM 46.4 °F - 44.6 °F 93% 29.50 in 7.0 mi Calm Calm - 0.01 in   Overcast
3:56 PM 46.4 °F - 44.6 °F 93% 29.49 in 9.0 mi Calm Calm - 0.02 in   Overcast
4:16 PM 46.4 °F - 42.8 °F 87% 29.49 in 9.0 mi Calm Calm - 0.01 in   Overcast
4:36 PM 46.4 °F - 42.8 °F 87% 29.49 in 9.0 mi Calm Calm - 0.01 in   Overcast
4:56 PM 46.4 °F - 42.8 °F 87% 29.49 in 9.0 mi Calm Calm - 0.02 in   Overcast
5:16 PM 46.4 °F - 42.8 °F 87% 29.49 in 9.0 mi Calm Calm - 0.01 in   Overcast
5:36 PM 46.4 °F - 42.8 °F 87% 29.49 in 9.0 mi Calm Calm - 0.02 in   Overcast
5:56 PM 46.4 °F - 42.8 °F 87% 29.49 in 9.0 mi Calm Calm - 0.03 in   Overcast
6:16 PM 46.4 °F - 42.8 °F 87% 29.49 in 9.0 mi Calm Calm - 0.01 in   Overcast
6:36 PM 46.4 °F - 42.8 °F 87% 29.49 in 9.0 mi Calm Calm - 0.02 in   Overcast
6:56 PM 46.4 °F - 42.8 °F 87% 29.50 in 9.0 mi Calm Calm - 0.02 in   Overcast
7:16 PM 44.6 °F - 42.8 °F 93% 29.49 in 9.0 mi Calm Calm - 0.01 in   Overcast
7:36 PM 44.6 °F - 42.8 °F 93% 29.49 in 9.0 mi Calm Calm - 0.01 in   Overcast
7:56 PM 44.6 °F - 42.8 °F 93% 29.49 in 10.0 mi Calm Calm - 0.02 in   Overcast
8:16 PM 44.6 °F - 42.8 °F 93% 29.50 in 10.0 mi Calm Calm - N/A   Overcast
8:36 PM 44.6 °F - 42.8 °F 93% 29.50 in 10.0 mi Calm Calm - N/A   Overcast
8:56 PM 44.6 °F - 42.8 °F 93% 29.50 in 8.0 mi Calm Calm - N/A   Overcast
9:16 PM 44.6 °F - 42.8 °F 93% 29.50 in 8.0 mi Calm Calm - N/A   Overcast
9:36 PM 44.6 °F - 42.8 °F 93% 29.51 in 8.0 mi Calm Calm - N/A   Overcast
9:56 PM 44.6 °F - 42.8 °F 93% 29.51 in 7.0 mi Calm Calm - N/A   Overcast
10:16 PM 44.6 °F - 42.8 °F 93% 29.51 in 10.0 mi Calm Calm - N/A   Overcast
10:36 PM 44.6 °F - 42.8 °F 93% 29.52 in 10.0 mi Calm Calm - N/A   Overcast
10:56 PM 44.6 °F - 41.0 °F 87% 29.52 in 10.0 mi Calm Calm - N/A   Overcast
11:16 PM 44.6 °F - 42.8 °F 93% 29.53 in 10.0 mi Calm Calm - N/A   Overcast
11:36 PM 44.6 °F - 41.0 °F 87% 29.53 in 10.0 mi Calm Calm - 0.01 in   Overcast
11:56 PM 44.6 °F - 41.0 °F 87% 29.54 in 7.0 mi Calm Calm - 0.03 in   Overcast